Location: T�chigga el Be�da
(16.4766°N, 9.3887°W)
Time: 09:43:02
(UTC+00:00)

Meteor 1-25 Rocket - Pass Details

Date: 27 February 2020
Orbit: 835 x 893 km, 81.2° (Epoch: 28 March)

Event Time Altitude Azimuth Distance (km) Brightness Sun altitude
Rises 18:55:30 0° 181° (S) 3,468 7.5 -3.6°
Reaches altitude 10° 18:57:58 10° 180° (S) 2,523 6.8 -4.2°
Maximum altitude 19:03:41 76° 95° (E) 893 4.2 -5.5°
Drops below altitude 10° 19:09:20 10° 10° (N) 2,488 6.5 -6.9°
Sets 19:11:44 0° 9° (N) 3,417 7.2 -7.4°
